"Pseudo-MPEC" for P21oYpq

Created 2021 Nov 26 10:07:14 UT using Find_Orb

Click here for an explanation of pseudo-MPECs

 
 Astrometry: 
     P21oYpq  C2021 11 12vYX?1bJ!3oa40=AstrometryCiFredacted;-eclick+lYR)9*L5F52
     P21oYpq  C2021 11 12c^TtGYPZ(k:!0Yx%here,pE7qkJItc.xq_-F,fv@ng41BDD@x$LoF52
     P21oYpq  C2021 11 12#=@ngforCC*QC)#\6IBVEJexplanationfP5.OZNM^UvaLpUn:RxF52

Station data:
(F52) Pan-STARRS 2, Haleakala  (N20.707384 W156.255910)  US/Hawaii. 1.8-m
   Ritchey-Chrétien + CCD.

Orbital elements:  P21oYpq
   Perihelion 2021 Nov 15.492234 +/- 36.9157 TT = 11:48:49 (JD 2459533.992234)
Epoch 2021 Nov 13.0 TT = JDT 2459531.5   Earth MOID: 0.2331   Ju: 0.7048
M 359.51760562 +/- 19.543517        (J2000 ecliptic)          AutoNEOCP
n   0.19355902 +/- 0.240024         Peri.  194.34019 +/- 72.584522
a   2.95978683 +/- 2.46942          Node   221.22253 +/- 65.128438
e   0.5882753 +/- 0.24838           Incl.   10.97783 +/- 4.1847856
P   5.09                   H 23.8   G  0.15   U 11.8  SR
q 1.21861706 +/- 0.264057    Q 4.70095660 +/- 44.2043
From 3 observations 2021 Nov. 12 (33.4 min); mean residual 0".16
Residuals in arcseconds: 
211112 F52  .15-  .04+    211112 F52  .31+  .08-    211112 F52  .17-  .05+    

Ephemerides (geocentric):
Date (UTC) HH   RA              Dec         delta   r     elong  mag " sig PA
---- -- -- --  -------------   -----------  ------ ------ -----  --- ---- ---
2021 11 26 10  04 46 20.922   -00 02 13.75  .25482 1.2256 157.0 22.2  72d   6
2021 11 26 11  04 46 25.639   -00 03 41.37  .25491 1.2256 157.0 22.2  72d   6
2021 11 26 12  04 46 30.351   -00 05 08.85  .25500 1.2257 157.0 22.2  72d   6
2021 11 26 13  04 46 35.057   -00 06 36.20  .25509 1.2257 157.0 22.2  72d   6
2021 11 26 14  04 46 39.757   -00 08 03.41  .25519 1.2258 157.0 22.2  72d   6
2021 11 26 15  04 46 44.452   -00 09 30.48  .25528 1.2258 156.9 22.2  72d   6
2021 11 26 16  04 46 49.141   -00 10 57.42  .25537 1.2259 156.9 22.2  72d   6
2021 11 26 17  04 46 53.825   -00 12 24.22  .25547 1.2260 156.9 22.2  72d   6
2021 11 26 18  04 46 58.503   -00 13 50.88  .25556 1.2260 156.9 22.2  72d   6
2021 11 26 19  04 47 03.175   -00 15 17.41  .25566 1.2261 156.9 22.2  72d   6
2021 11 26 20  04 47 07.842   -00 16 43.80  .25575 1.2261 156.8 22.2  72d   6
2021 11 26 21  04 47 12.503   -00 18 10.05  .25585 1.2262 156.8 22.2  72d   6
2021 11 26 22  04 47 17.158   -00 19 36.17  .25594 1.2262 156.8 22.2  72d   6
2021 11 26 23  04 47 21.808   -00 21 02.14  .25604 1.2263 156.8 22.2  72d   6
2021 11 27 00  04 47 26.452   -00 22 27.98  .25613 1.2263 156.8 22.2  72d   6
2021 11 27 01  04 47 31.091   -00 23 53.68  .25623 1.2264 156.7 22.2  72d   6
2021 11 27 02  04 47 35.724   -00 25 19.24  .25632 1.2265 156.7 22.2  72d   6
2021 11 27 03  04 47 40.351   -00 26 44.67  .25642 1.2265 156.7 22.2  72d   6
2021 11 27 04  04 47 44.973   -00 28 09.96  .25652 1.2266 156.7 22.2  72d   6
2021 11 27 05  04 47 49.589   -00 29 35.10  .25661 1.2266 156.7 22.2  72d   6
2021 11 27 06  04 47 54.200   -00 31 00.11  .25671 1.2267 156.6 22.2  72d   6
2021 11 27 07  04 47 58.805   -00 32 24.98  .25681 1.2267 156.6 22.2  72d   6
2021 11 27 08  04 48 03.405   -00 33 49.72  .25690 1.2268 156.6 22.2  72d   6
2021 11 27 09  04 48 07.999   -00 35 14.31  .25700 1.2268 156.6 22.2  72d   6
2021 11 27 10  04 48 12.587   -00 36 38.76  .25710 1.2269 156.6 22.2  72d   6
2021 11 27 11  04 48 17.170   -00 38 03.08  .25720 1.2270 156.5 22.2  72d   6
2021 11 27 12  04 48 21.747   -00 39 27.25  .25730 1.2270 156.5 22.3  72d   6
2021 11 27 13  04 48 26.319   -00 40 51.29  .25739 1.2271 156.5 22.3  72d   6
2021 11 27 14  04 48 30.885   -00 42 15.18  .25749 1.2271 156.5 22.3  72d   6
2021 11 27 15  04 48 35.446   -00 43 38.94  .25759 1.2272 156.5 22.3  72d   6
2021 11 27 16  04 48 40.001   -00 45 02.56  .25769 1.2273 156.4 22.3  72d   6
2021 11 27 17  04 48 44.550   -00 46 26.03  .25779 1.2273 156.4 22.3  72d   6
2021 11 27 18  04 48 49.094   -00 47 49.37  .25789 1.2274 156.4 22.3  72d   6
2021 11 27 19  04 48 53.633   -00 49 12.57  .25799 1.2274 156.4 22.3  72d   6
2021 11 27 20  04 48 58.166   -00 50 35.62  .25809 1.2275 156.4 22.3  72d   6
2021 11 27 21  04 49 02.693   -00 51 58.54  .25819 1.2276 156.4 22.3  72d   6
2021 11 27 22  04 49 07.215   -00 53 21.32  .25829 1.2276 156.3 22.3  72d   6
2021 11 27 23  04 49 11.732   -00 54 43.95  .25839 1.2277 156.3 22.3  72d   6
2021 11 28 00  04 49 16.243   -00 56 06.44  .25849 1.2277 156.3 22.3  72d   6
2021 11 28 01  04 49 20.748   -00 57 28.80  .25859 1.2278 156.3 22.3  72d   6
2021 11 28 02  04 49 25.248   -00 58 51.01  .25870 1.2279 156.3 22.3  72d   6
2021 11 28 03  04 49 29.743   -01 00 13.08  .25880 1.2279 156.2 22.3  72d   6
2021 11 28 04  04 49 34.232   -01 01 35.01  .25890 1.2280 156.2 22.3  72d   6
2021 11 28 05  04 49 38.716   -01 02 56.80  .25900 1.2280 156.2 22.3  72d   6
2021 11 28 06  04 49 43.194   -01 04 18.45  .25910 1.2281 156.2 22.3  72d   6
2021 11 28 07  04 49 47.666   -01 05 39.95  .25921 1.2282 156.2 22.3  72d   6
2021 11 28 08  04 49 52.134   -01 07 01.32  .25931 1.2282 156.1 22.3  72d   6
2021 11 28 09  04 49 56.595   -01 08 22.54  .25941 1.2283 156.1 22.3  72d   6